GFSCGP_925_spd_060.txt.gz
Wind_Speed
10 12 14 17 17 21 22 23 28 27 27 27 23 28 27 26 25 26 21 22 24 23 20 29 27 33 32 28 27 24 21 20 16 17 20 21 20 20 20 20 21 21 23 26
14 15 16 18 19 22 23 25 28 27 26 22 26 31 30 25 25 28 25 21 24 23 21 16 21 20 22 22 23 22 23 22 22 23 25 19 14 20 23 20 19 20 21 22
16 19 20 21 21 23 25 22 24 27 24 22 26 30 30 30 25 25 26 26 23 25 19 21 13 12 19 22 24 25 24 23 24 27 21 19 18 15 12 17 17 19 20 20
15 19 20 18 21 19 21 21 25 26 23 17 21 21 23 23 26 27 24 23 23 23 22 17 13 9 13 18 20 22 25 27 30 31 27 22 18 15 18 18 18 19 18 20
18 18 19 23 21 26 24 21 21 23 22 23 25 16 19 24 27 25 23 21 22 22 24 21 14 12 16 18 23 26 28 32 35 33 30 27 22 20 17 16 20 21 20 21
16 10 18 19 25 28 21 16 21 21 19 20 27 22 23 22 25 25 25 27 20 20 21 23 20 17 18 25 25 30 36 35 40 34 35 29 26 23 19 20 22 19 20 21
16 17 4 9 12 19 14 15 14 16 14 19 25 25 24 20 29 30 24 21 23 21 22 20 20 15 17 19 21 22 25 32 34 33 27 31 24 29 14 28 22 20 22 21
11 15 12 13 15 17 20 19 8 9 15 17 22 14 21 24 34 28 23 10 7 24 20 14 8 6 9 16 22 26 23 24 26 24 24 23 24 22 19 26 22 23 25 27
12 15 20 21 18 13 18 16 18 17 19 14 10 21 23 22 29 22 22 7 3 4 3 5 7 6 7 11 12 21 21 22 23 23 22 22 24 22 22 23 21 26 25 25
16 20 19 20 19 16 19 19 16 6 5 8 14 16 11 21 23 21 22 19 8 6 4 6 8 6 5 10 13 13 23 24 22 20 21 22 22 22 21 21 23 20 23 24
21 12 17 19 19 16 14 15 16 11 10 13 10 11 12 21 18 17 25 13 11 7 8 8 8 3 11 14 22 15 20 22 21 21 22 23 21 23 24 22 19 20 21 23
13 6 15 21 24 14 17 21 1 4 14 11 7 15 11 14 21 27 26 17 14 6 3 6 8 6 10 20 17 17 18 21 22 23 22 22 24 24 22 20 19 19 17 18
5 5 13 13 9 8 10 20 18 6 14 16 14 13 17 24 31 32 13 9 10 5 7 10 7 3 12 10 17 18 20 23 25 24 24 23 23 22 20 20 19 18 16 15
5 13 16 13 19 9 9 19 19 11 9 15 13 18 16 21 24 31 25 8 6 3 9 3 6 1 4 12 17 21 22 25 24 25 24 23 22 22 20 20 19 17 16 15
2 9 15 18 20 23 18 22 23 25 22 17 16 15 6 4 8 19 19 25 2 4 9 6 5 1 5 4 12 21 21 23 23 24 24 22 22 21 19 18 17 17 16 15
6 9 15 20 20 21 19 24 23 20 24 23 19 16 7 20 11 24 25 15 7 6 6 7 8 4 4 4 8 21 23 24 24 25 24 22 20 19 18 19 18 17 16 15
9 7 10 17 16 19 13 1 9 19 23 23 14 16 15 8 9 15 18 14 12 11 6 8 8 2 4 2 8 16 22 24 23 23 22 20 20 19 18 14 18 16 14 14
4 8 6 10 15 12 7 8 11 14 23 21 18 12 11 14 10 10 14 16 16 13 9 5 9 3 7 5 6 16 22 21 22 21 21 21 21 19 16 17 16 15 15 16
8 1 3 4 7 14 18 8 4 8 23 16 14 15 14 16 16 12 10 17 17 15 10 6 12 2 11 11 8 12 18 21 21 20 20 21 25 22 21 19 16 16 15 13
10 5 3 4 4 4 4 7 8 6 14 12 16 18 19 16 7 9 10 19 19 21 10 7 9 10 13 18 18 9 17 18 18 21 20 20 24 26 23 21 15 14 15 12
4 3 5 8 6 7 8 9 4 3 5 11 16 20 20 16 15 17 20 17 17 18 20 16 16 1 9 20 17 8 15 17 20 21 20 16 27 26 22 18 15 15 15 13
4 4 4 4 4 4 6 5 4 6 9 13 21 23 18 18 19 18 18 17 16 19 19 24 15 11 14 21 15 10 13 19 21 21 21 23 26 19 18 17 14 14 15 14
4 5 5 5 4 7 12 15 15 13 13 11 14 17 16 20 15 16 16 17 16 19 15 24 18 6 16 21 18 9 19 19 21 19 27 22 24 20 17 15 14 13 15 15
15 15 9 10 8 7 17 14 9 9 7 15 17 17 18 18 20 20 17 16 16 16 16 22 15 9 11 22 19 16 21 20 20 28 27 22 22 20 17 12 14 15 14 14
14 13 9 16 15 12 10 13 10 15 19 10 11 13 15 16 18 20 16 18 17 16 20 10 11 8 16 22 19 17 23 20 22 29 26 22 22 19 14 11 7 9 7 4
11 9 2 4 17 13 12 14 12 18 10 13 17 16 16 17 20 17 16 17 15 16 15 11 9 13 19 20 22 20 23 19 24 21 24 22 21 18 17 15 15 13 11 10

GFSCGP_925_spd_063.txt.gz
Wind_Speed
7 5 6 11 10 12 13 17 17 20 12 13 13 18 22 14 16 19 21 12 19 20 24 29 28 30 30 30 33 32 28 26 26 21 19 22 25 24 22 22 25 24 29 30
5 6 8 14 14 14 14 15 18 17 13 13 16 21 23 16 16 18 19 21 19 21 19 20 28 32 30 30 39 37 34 33 30 28 27 22 23 25 29 25 26 26 26 27
6 8 13 14 13 15 14 14 16 20 15 12 16 20 22 26 17 18 21 19 20 21 22 19 14 24 32 29 37 39 36 34 32 28 27 25 25 24 18 22 28 26 25 26
8 10 13 12 16 15 17 14 20 19 10 10 6 18 16 20 22 19 18 18 19 17 21 19 17 12 18 28 40 38 33 32 31 30 27 29 25 21 25 22 28 25 25 25
12 12 4 11 9 11 16 14 20 23 10 9 10 10 15 9 16 21 17 22 19 18 21 23 21 13 25 36 39 40 37 35 33 32 32 33 29 29 25 21 25 26 24 23
7 6 4 3 10 10 16 8 14 16 4 12 15 12 20 16 21 24 20 22 25 18 15 22 19 22 18 30 35 35 33 35 35 36 34 33 32 31 23 21 29 29 27 23
7 5 4 3 5 16 12 4 4 4 4 12 12 5 8 18 22 25 25 23 25 29 24 19 15 11 12 26 32 37 40 39 38 36 36 36 36 33 26 25 28 29 28 25
4 5 7 4 9 15 10 5 4 6 9 13 12 10 14 19 19 22 21 25 25 27 30 19 21 14 10 23 29 30 34 34 36 36 37 38 37 31 27 24 30 31 31 27
5 5 16 16 12 10 14 6 6 3 3 2 6 18 18 20 18 18 26 21 20 22 19 20 13 10 9 18 25 27 29 31 33 37 34 33 33 31 26 28 33 32 27 27
4 8 7 15 14 9 9 7 8 2 4 6 8 11 8 13 19 26 32 27 24 10 12 3 9 8 9 11 8 3 14 26 30 32 32 31 28 26 27 33 33 29 29 25
9 4 7 8 5 7 8 4 4 3 4 4 5 4 8 12 16 23 30 31 24 31 7 6 2 7 8 4 3 2 14 26 28 27 26 25 24 28 32 33 28 30 27 26
5 4 5 14 17 7 6 5 5 3 5 3 7 10 10 8 14 17 25 22 24 23 3 5 5 4 0 5 9 9 20 27 29 27 25 24 26 29 32 26 29 30 33 29
1 3 4 6 3 1 1 9 5 4 1 7 6 6 6 8 13 15 18 19 21 24 17 6 1 1 7 8 13 18 24 27 30 28 27 25 26 31 30 32 32 32 31 28
4 4 6 8 13 12 17 19 16 9 3 12 12 20 4 10 9 14 19 19 22 18 24 8 4 3 3 8 15 20 24 30 25 24 26 29 28 28 31 30 28 28 25 22
2 5 9 14 17 18 19 21 17 14 13 14 16 5 6 5 7 5 11 17 20 22 25 13 7 6 1 6 9 21 26 26 27 28 25 27 30 28 28 25 23 21 19 16
3 6 9 17 18 18 20 16 18 11 9 11 10 4 5 11 7 10 11 13 18 17 27 8 7 6 4 3 5 17 26 25 30 28 27 28 29 27 26 23 21 20 18 18
3 4 4 9 11 14 12 6 2 1 4 10 6 5 7 6 10 9 7 16 15 19 18 17 6 6 4 2 5 16 27 32 30 28 27 26 28 26 24 21 21 20 19 19
6 2 3 5 8 3 4 3 7 4 3 11 11 13 11 11 13 11 7 9 17 18 20 18 10 8 4 6 4 18 28 30 32 28 28 28 26 25 22 22 21 19 16 18
6 4 3 3 3 12 11 6 4 4 3 5 6 9 12 15 13 10 4 15 15 15 18 17 21 13 11 3 7 24 28 29 30 28 26 25 30 26 23 22 18 17 18 18
7 3 2 3 3 4 4 4 6 2 2 7 6 6 10 13 9 11 14 20 20 19 15 18 25 25 14 17 4 18 23 27 23 26 26 32 31 28 25 21 17 21 19 17
3 2 7 7 6 7 1 7 7 4 6 8 3 4 5 7 12 16 18 21 16 17 19 29 26 16 18 16 25 19 19 21 26 30 28 32 29 30 26 22 21 19 17 16
5 3 4 3 3 6 4 4 2 7 13 11 4 6 9 11 16 14 15 15 15 15 20 28 18 17 19 18 27 8 5 27 32 25 29 31 31 24 23 25 22 20 19 19
4 5 3 6 5 5 5 9 11 9 13 14 8 6 10 14 14 14 14 15 14 15 16 28 21 17 25 16 15 8 5 25 27 32 30 30 30 29 26 24 21 19 20 22
5 6 5 8 4 7 14 15 14 6 9 8 11 12 5 11 13 16 16 14 15 12 16 26 20 11 11 19 34 18 6 26 34 31 28 30 31 29 25 22 20 22 21 22
12 9 8 11 8 7 14 9 6 6 6 12 11 11 13 12 16 17 12 15 14 13 20 23 18 11 17 17 17 16 7 34 31 30 26 26 29 28 25 20 13 14 14 13
3 8 3 4 7 10 11 9 7 6 11 11 12 18 17 18 17 15 14 14 13 13 18 15 20 17 21 7 19 16 8 33 31 26 24 25 25 25 26 23 19 13 11 8

GFSCGP_925_spd_069.txt.gz
Wind_Speed
3 4 2 5 7 6 2 3 5 6 6 7 11 18 14 7 5 7 8 10 9 16 15 12 19 23 17 16 24 25 30 33 32 30 34 33 36 39 37 37 32 27 26 25
6 2 5 4 4 4 3 2 4 6 6 10 9 23 18 12 6 7 7 8 10 9 12 21 19 18 25 22 23 29 29 31 33 32 30 27 33 39 39 40 34 29 28 25
3 6 6 3 4 5 2 3 4 7 7 8 8 22 9 4 4 5 6 6 6 8 11 13 15 21 26 27 23 29 33 37 37 44 32 28 22 25 26 32 28 33 27 26
4 4 1 6 4 3 3 4 5 9 6 3 3 12 6 3 8 6 7 8 10 11 9 10 17 19 25 27 31 30 32 35 37 38 41 36 30 26 33 36 38 27 24 25
9 4 5 3 4 5 7 6 6 6 6 3 4 5 3 7 7 9 8 8 7 7 10 13 13 22 31 31 31 33 35 35 41 41 42 40 31 28 23 26 23 25 21 22
7 3 4 6 5 5 3 3 4 3 2 2 9 7 17 4 4 4 4 5 6 10 13 14 17 21 25 29 31 32 30 35 40 39 44 42 38 32 28 24 24 22 20 20
4 2 1 2 1 5 6 5 4 4 2 5 2 3 15 12 10 5 3 8 9 9 11 14 13 13 23 28 30 32 29 32 37 41 42 42 40 36 39 34 27 21 19 20
1 5 0 2 3 5 5 7 4 5 4 10 10 6 7 4 5 4 5 9 10 11 12 13 15 13 23 27 31 31 29 33 36 40 41 43 41 38 42 34 26 26 25 24
1 5 3 8 2 4 4 4 4 2 2 1 5 8 9 10 7 5 8 8 10 14 17 17 14 19 23 26 32 34 32 32 33 39 40 40 43 40 39 33 26 25 24 27
3 6 8 3 1 6 6 3 3 2 3 5 5 6 8 8 10 7 12 11 13 17 19 20 17 16 24 28 35 41 38 35 34 39 40 43 45 44 39 29 25 26 29 27
2 4 4 3 4 5 3 2 1 3 3 3 4 5 6 8 8 12 10 9 12 19 22 21 21 21 22 29 33 34 28 32 30 34 34 38 41 36 29 26 26 31 29 27
3 3 4 8 13 7 6 5 4 3 5 4 3 12 7 8 9 10 9 10 13 18 23 23 19 16 20 28 32 26 26 28 31 36 38 34 28 24 24 25 30 33 28 28
3 1 4 6 3 4 2 3 4 2 2 8 6 10 5 7 11 11 8 8 12 23 29 19 12 12 19 27 30 24 17 27 30 34 30 28 27 24 27 30 30 28 29 30
5 6 8 9 9 4 12 15 11 7 5 8 12 23 21 18 13 13 7 7 12 21 13 14 19 19 17 25 19 20 15 16 24 27 28 26 27 29 30 29 29 30 28 31
8 6 6 9 14 16 20 21 20 18 17 13 20 21 21 12 11 12 6 7 12 23 14 17 24 24 18 17 19 24 12 12 19 22 26 27 31 31 30 28 28 26 29 33
3 3 3 12 17 20 19 18 18 19 20 19 17 19 9 5 5 5 9 11 12 15 20 13 19 19 18 17 12 13 13 12 17 18 22 29 30 29 29 28 27 30 30 32
4 2 5 9 3 10 10 7 6 5 9 9 9 11 3 6 8 7 13 13 8 13 17 18 18 18 19 21 21 15 16 6 20 22 22 24 27 27 28 31 31 31 34 34
8 5 4 3 3 4 5 4 4 7 8 8 7 8 6 7 9 9 12 3 10 12 16 17 15 15 27 28 22 21 15 4 13 19 22 25 27 27 29 33 32 32 33 33
14 9 3 3 4 6 8 5 2 2 14 4 7 7 7 9 8 7 3 3 10 14 14 13 18 20 25 25 23 18 13 17 7 17 22 25 28 29 29 31 32 33 32 30
8 9 4 2 3 5 6 3 3 3 8 5 6 9 12 10 13 10 6 10 14 13 12 12 21 19 20 27 23 16 4 5 14 15 24 26 30 30 29 32 33 32 30 28
3 2 9 8 5 7 6 4 4 2 7 3 4 13 15 15 13 17 13 14 13 14 13 19 23 16 20 26 24 16 5 2 6 8 24 26 29 35 36 33 32 29 26 24
5 4 3 3 5 6 4 4 5 8 4 5 11 18 20 21 19 13 10 13 17 15 14 17 15 15 21 27 17 5 6 6 10 29 25 28 30 31 33 32 29 29 28 27
2 4 2 5 5 6 5 13 12 6 16 15 13 15 16 18 17 13 10 15 15 12 11 20 18 17 19 20 20 7 0 8 14 18 21 30 31 32 32 31 28 26 27 23
4 2 4 6 6 10 8 13 9 14 11 15 16 13 13 16 12 13 14 16 12 10 13 18 17 12 14 16 14 14 10 16 23 13 21 28 29 26 30 31 30 27 23 19
8 6 5 6 10 10 11 13 15 17 17 18 16 14 15 12 13 17 18 16 16 15 16 18 14 12 16 15 12 1 3 5 12 14 22 22 26 24 24 22 20 25 26 28
3 5 3 13 15 14 17 19 20 19 18 11 9 13 16 17 20 16 14 16 16 17 16 14 15 16 16 13 14 7 3 13 8 12 21 23 21 19 23 24 18 20 21 22

GFSCGP_925_spd_072.txt.gz
Wind_Speed
3 4 3 5 5 5 3 3 5 5 5 5 8 16 10 7 7 9 8 7 7 6 5 6 10 16 18 25 25 24 24 19 26 28 28 29 33 39 42 44 42 40 32 32
5 3 5 4 5 4 4 3 4 5 5 7 9 23 18 13 8 8 7 7 8 3 4 4 11 14 19 22 25 26 23 23 22 27 28 26 25 31 38 37 42 37 32 32
5 5 2 3 2 3 3 4 3 5 3 5 7 9 5 5 2 3 6 7 7 5 1 5 5 11 15 23 25 27 27 25 25 23 27 27 27 19 21 34 35 38 33 34
4 3 3 3 2 4 3 4 4 5 4 3 4 6 2 8 9 4 8 9 8 8 7 3 8 9 14 20 29 29 28 28 29 27 26 31 28 24 31 35 35 37 33 29
7 2 4 2 5 5 7 3 3 3 3 2 3 4 5 4 4 8 9 7 6 9 8 10 11 14 21 20 25 30 30 29 30 29 28 30 31 30 32 31 30 29 25 26
7 2 3 5 2 3 3 4 5 4 2 2 6 5 1 2 6 6 6 7 7 7 8 9 14 18 21 23 24 27 29 30 29 30 32 31 33 32 33 29 26 25 25 25
3 2 1 2 2 3 5 6 5 4 2 5 1 4 8 10 17 6 8 8 9 8 9 11 14 15 22 26 29 27 25 31 29 29 32 33 38 37 38 35 34 28 25 25
2 4 3 0 3 4 4 6 4 5 3 6 3 8 7 6 9 7 6 7 8 9 6 11 16 16 23 27 30 31 27 33 30 27 33 33 38 35 36 36 34 32 28 30
3 4 4 3 4 6 2 3 4 2 2 2 5 8 12 15 12 5 7 8 9 7 8 14 16 23 27 27 29 31 29 35 31 30 34 36 37 35 32 37 40 38 31 29
3 4 4 5 1 2 5 5 0 3 3 5 5 6 10 11 15 5 9 10 9 6 10 14 19 20 28 33 30 29 31 35 34 35 32 33 36 38 38 40 38 36 31 26
4 3 4 3 4 6 1 1 3 3 4 4 5 6 5 6 9 9 8 8 10 8 9 15 19 26 27 30 29 30 34 33 32 30 36 34 34 37 38 38 40 35 28 28
3 4 4 9 7 4 5 6 6 3 4 4 3 15 4 14 13 7 11 13 8 8 7 16 19 22 26 27 28 32 34 32 29 31 34 34 35 35 34 38 37 29 30 31
4 2 3 6 2 3 3 5 5 3 1 9 8 12 4 4 7 14 15 12 10 6 8 14 15 18 17 27 30 33 34 30 28 28 34 34 32 32 35 35 30 30 33 28
6 6 7 9 6 3 8 14 10 7 5 9 18 26 22 18 17 12 12 11 10 10 8 10 12 18 18 29 34 37 38 36 28 31 32 29 31 33 33 33 33 34 30 30
6 8 9 13 13 11 14 18 18 16 20 13 27 18 21 19 17 9 7 7 12 14 11 13 13 15 18 26 37 42 39 34 23 28 28 29 32 35 33 33 33 29 29 30
3 4 4 4 7 12 19 22 20 19 19 18 25 24 21 19 5 6 8 11 12 10 11 12 16 20 20 25 36 41 36 26 18 21 23 26 30 30 30 26 28 28 28 28
4 3 3 9 7 7 10 17 13 6 6 6 7 15 5 5 6 6 10 14 12 9 13 15 15 17 13 26 41 38 30 22 12 17 19 26 27 24 25 26 27 27 29 31
7 6 4 5 2 5 6 3 5 9 9 7 8 12 10 7 4 7 10 13 11 9 10 14 15 15 26 33 25 27 27 24 1 15 15 21 24 24 25 26 26 27 32 33
15 8 3 3 4 7 7 3 1 4 6 3 10 10 6 5 6 12 12 7 7 12 10 13 24 24 31 35 35 28 23 16 5 11 12 17 23 24 26 26 27 30 32 32
7 10 3 2 3 4 6 1 3 2 9 2 4 7 6 5 14 14 13 13 15 13 10 15 25 27 27 30 29 24 20 12 13 3 11 16 21 26 26 26 29 28 33 33
4 3 9 7 5 6 6 2 1 2 5 5 2 6 7 11 13 19 15 14 12 8 13 20 21 21 27 28 25 18 15 4 7 12 13 18 21 25 30 29 37 34 33 32
1 1 2 3 5 6 4 1 5 4 11 10 14 17 16 16 16 13 14 12 10 10 14 16 16 20 27 28 23 17 9 7 5 3 6 18 22 24 27 35 30 31 31 28
2 4 2 6 5 6 4 8 12 8 12 10 14 16 17 17 17 15 15 13 9 10 12 12 15 21 28 26 24 18 14 1 3 8 7 16 20 25 30 30 28 25 27 24
4 1 4 4 6 10 10 11 11 12 15 19 15 15 16 18 14 15 14 12 10 13 12 16 17 14 17 24 25 22 13 4 5 10 13 13 18 22 25 27 28 25 22 19
5 3 4 6 10 11 15 14 12 19 17 16 15 15 11 11 15 18 17 17 16 16 12 15 14 15 20 25 24 21 6 4 4 8 15 11 18 22 24 22 17 24 24 26
2 5 3 4 15 17 17 18 18 16 16 15 14 15 22 22 21 21 21 19 17 10 15 14 18 16 21 21 18 17 5 2 12 20 24 26 22 21 25 24 20 20 21 20

GFSCGP_925_spd_075.txt.gz
Wind_Speed
2 5 5 4 4 3 3 4 6 5 7 7 12 18 18 17 16 17 14 10 9 7 7 3 4 7 10 15 18 15 9 12 12 10 12 18 22 23 29 41 39 37 32 25
3 8 6 5 3 4 4 5 7 7 6 11 14 20 18 17 16 17 16 14 9 5 3 3 4 8 11 15 21 22 19 13 9 17 31 16 12 18 27 27 38 31 27 19
4 1 5 4 3 5 5 7 6 9 8 12 12 12 5 7 11 10 12 9 5 6 9 4 8 11 12 15 18 22 25 20 15 16 13 21 16 15 12 20 22 31 26 20
5 0 5 5 4 6 8 5 6 8 8 8 6 8 10 14 6 5 4 8 10 4 3 8 9 12 15 19 20 22 27 27 19 17 12 15 18 19 22 19 22 29 33 35
4 3 6 8 10 9 6 1 6 8 12 11 13 7 4 3 6 1 6 7 9 6 6 7 10 16 18 18 22 24 26 32 29 25 19 16 18 22 24 21 22 28 34 33
13 1 4 7 2 8 3 4 8 4 4 6 5 7 4 4 8 5 10 9 6 7 6 7 11 14 18 20 19 21 27 29 30 23 22 20 22 23 22 21 22 23 23 26
5 6 2 4 6 3 3 3 6 3 4 4 4 9 11 10 11 15 16 13 9 5 7 9 11 14 20 24 27 25 23 29 30 24 22 21 25 27 26 26 23 21 23 25
7 9 6 5 5 3 4 4 5 5 4 7 10 9 3 6 10 13 13 8 10 10 11 13 11 14 22 25 25 27 29 28 27 25 26 23 26 26 25 26 25 26 26 27
5 6 2 6 1 3 4 7 2 7 9 8 7 12 13 15 8 5 5 3 9 10 15 13 15 17 19 20 25 26 30 29 27 27 28 30 31 27 29 30 30 32 28 25
1 6 5 4 1 5 9 8 4 2 4 6 6 17 12 15 11 5 8 12 13 18 17 12 10 17 23 20 22 26 29 28 28 29 29 31 30 33 33 32 31 32 28 27
4 5 3 2 7 7 5 7 4 3 4 4 8 6 3 9 13 11 13 10 19 19 16 14 13 19 21 26 31 21 29 31 30 28 29 31 33 32 31 31 32 30 29 31
5 3 9 14 11 7 8 11 10 6 6 7 11 18 13 16 12 7 14 19 19 15 14 13 15 20 25 26 25 25 29 32 30 29 29 31 34 32 30 32 30 30 30 27
6 4 6 7 4 4 6 10 10 9 4 15 11 12 3 8 19 21 21 16 15 14 16 14 13 16 20 28 25 27 32 32 30 29 30 32 32 32 31 31 30 29 28 26
4 6 12 14 10 1 5 9 12 13 9 16 18 30 27 26 22 20 18 17 13 15 13 13 13 17 21 26 24 25 31 32 31 30 30 33 32 34 33 31 29 29 28 28
4 13 15 19 22 21 24 26 24 22 23 18 23 23 28 23 23 19 17 13 13 16 13 13 15 17 19 23 26 28 30 33 32 31 31 32 32 33 30 28 28 29 29 28
6 10 12 15 13 15 19 25 25 26 26 25 27 27 25 21 15 14 12 11 14 16 17 15 16 19 21 21 26 32 34 37 35 36 31 33 30 31 30 29 29 29 27 26
5 5 3 12 9 11 13 25 23 22 19 17 17 18 15 16 15 14 14 13 16 19 19 16 18 17 18 25 25 33 38 42 40 37 36 33 33 32 30 30 31 28 27 27
17 13 7 10 11 10 8 3 5 7 11 14 16 18 14 13 15 12 14 16 17 17 17 18 16 15 24 26 27 34 42 46 39 41 48 33 34 32 30 29 28 27 28 28
19 15 6 4 9 13 14 8 2 5 12 7 12 9 16 19 17 16 14 17 19 18 19 17 23 24 25 23 22 34 35 38 49 26 23 29 32 30 31 28 29 28 27 25
9 10 4 4 5 4 2 2 3 2 12 6 9 16 20 19 16 16 16 20 20 18 19 18 25 26 27 25 25 27 26 31 14 13 20 25 27 28 29 28 29 28 27 27
3 4 10 9 6 7 5 3 4 4 6 12 19 20 21 18 17 24 22 22 20 18 20 25 25 23 27 27 31 25 27 21 24 21 13 18 22 22 26 28 29 30 28 31
2 3 2 4 5 6 3 2 5 13 19 17 23 21 19 22 25 22 23 23 22 21 20 22 21 23 28 28 27 24 20 31 19 17 6 15 18 20 24 29 28 30 33 29
3 3 4 4 5 13 18 16 15 16 17 22 17 17 18 21 25 24 22 22 21 20 18 24 21 22 26 25 23 21 28 31 10 9 10 15 19 20 23 29 29 29 28 26
3 2 4 8 2 14 21 19 17 19 18 18 21 20 20 24 27 28 24 22 20 19 20 27 26 17 18 23 24 21 25 19 3 6 9 18 21 24 24 23 26 27 24 23
6 8 6 12 16 15 14 14 21 23 19 22 20 24 27 28 27 26 23 23 19 17 24 27 22 15 20 26 24 21 23 17 5 0 6 16 23 23 25 21 20 22 21 24
1 3 3 6 19 17 19 24 25 24 20 22 25 24 21 21 18 17 18 18 17 18 22 18 20 19 23 23 21 21 20 19 8 6 8 16 25 20 19 22 21 18 21 25

GFSCGP_925_spd_078.txt.gz
Wind_Speed
5 9 11 8 3 8 9 10 12 10 8 12 16 17 18 18 18 20 18 16 15 11 9 8 5 1 3 7 9 10 2 30 13 6 10 10 12 14 18 19 25 26 23 23
9 13 9 5 6 8 10 12 13 9 10 11 16 20 20 20 20 18 17 18 16 13 11 6 5 3 6 7 8 12 11 7 14 17 11 8 16 11 13 15 18 25 27 26
10 5 1 8 9 11 13 13 11 13 12 16 19 20 20 9 10 11 13 9 12 7 4 2 3 6 8 9 11 8 9 11 11 15 19 17 14 20 24 15 17 28 32 31
9 5 8 9 10 8 13 5 8 12 13 13 7 10 11 11 12 5 5 5 6 4 3 1 2 5 9 11 10 12 11 9 7 8 13 17 20 21 26 22 21 29 31 33
9 10 12 12 13 11 15 3 12 13 15 17 19 11 14 3 9 6 5 2 2 3 2 2 3 6 7 8 13 14 14 14 10 9 10 16 20 26 30 29 22 24 30 27
19 13 9 15 10 10 9 12 15 16 13 14 20 15 10 7 8 12 9 7 2 4 4 3 4 7 10 10 10 13 15 15 15 12 13 17 22 23 27 23 23 40 29 22
19 19 18 10 14 9 11 14 11 11 10 11 6 6 12 5 5 4 11 10 8 6 5 5 9 10 9 13 15 14 11 16 19 17 16 18 23 25 29 29 28 28 23 23
16 15 16 13 16 16 11 10 10 13 11 9 4 7 1 4 4 9 9 6 4 6 5 9 12 10 13 14 16 18 19 19 18 21 20 20 22 24 27 29 30 27 25 23
8 15 6 6 8 10 11 10 9 15 17 15 13 13 12 13 8 8 8 4 7 4 10 12 11 10 12 16 16 17 21 24 24 22 23 23 23 24 26 29 25 24 24 22
12 13 16 9 6 15 15 10 7 9 8 14 10 11 8 11 3 4 7 11 11 10 15 15 13 13 14 15 18 21 22 27 26 27 25 26 26 26 27 29 28 27 23 24
11 10 13 7 13 16 9 13 11 11 12 10 12 4 8 3 7 10 10 11 11 16 16 15 13 16 19 19 19 22 25 27 25 27 28 26 28 29 29 30 30 29 24 23
12 7 13 17 13 11 14 18 16 11 15 14 13 14 5 3 6 8 14 17 19 15 16 14 15 16 17 19 23 24 25 27 27 28 28 28 28 29 30 31 30 28 26 25
5 9 11 14 13 4 11 17 16 16 16 17 13 12 2 9 15 17 16 16 15 16 16 15 14 13 14 17 20 25 28 28 28 27 28 30 29 29 31 30 31 29 27 25
2 15 17 14 16 5 7 10 12 17 12 15 20 26 22 21 20 16 16 15 15 15 14 14 13 15 17 20 23 25 28 30 29 27 29 30 29 29 31 32 32 31 29 28
10 18 18 21 21 20 24 23 23 22 24 24 26 28 24 23 21 20 18 17 15 16 16 16 17 18 18 22 26 26 28 28 31 31 30 32 29 30 33 35 33 31 29 30
16 22 22 25 21 19 20 23 25 27 28 29 29 30 25 24 21 15 17 15 17 17 17 18 19 20 18 22 26 27 30 30 32 35 35 33 32 32 34 34 33 30 32 31
13 10 12 17 17 11 14 23 25 26 25 23 24 24 18 14 16 13 16 19 20 18 19 20 21 18 18 25 28 28 32 33 35 37 38 35 34 34 34 33 34 33 33 31
19 14 8 9 11 13 15 8 11 13 14 13 16 17 17 16 13 16 19 22 19 19 19 22 20 18 25 27 24 28 31 37 34 41 44 38 34 33 35 34 34 32 33 34
18 15 5 6 9 16 21 11 9 11 17 16 14 13 13 16 20 23 23 15 18 21 20 19 25 27 28 29 27 28 34 32 39 39 39 37 34 32 37 35 33 33 33 33
5 2 5 5 5 5 1 1 7 10 15 12 10 13 17 21 20 19 20 22 22 22 23 21 29 30 29 28 27 31 29 31 35 36 32 34 33 37 37 33 34 33 33 34
2 2 13 13 7 8 6 8 6 7 6 21 20 21 22 18 18 22 22 23 20 21 24 30 30 28 29 28 29 28 23 23 39 48 54 41 37 39 34 31 32 34 33 31
3 3 4 5 5 6 9 15 9 17 20 21 23 21 21 23 24 23 25 25 26 25 25 29 25 28 31 29 31 26 18 38 44 14 29 30 31 29 30 33 32 33 33 32
3 4 4 4 5 16 14 14 16 15 16 19 22 23 20 26 27 25 25 27 27 28 24 29 26 30 33 32 29 21 24 38 47 28 20 27 29 30 33 33 32 30 32 29
5 6 6 9 2 12 17 21 18 18 21 24 25 26 25 25 28 29 25 24 25 25 22 25 30 24 24 29 27 23 26 29 33 23 13 17 25 25 26 28 31 30 29 28
7 9 9 14 17 18 14 16 23 25 25 27 26 25 24 24 28 23 23 24 21 21 24 27 24 22 24 28 22 23 19 20 22 14 11 15 18 20 24 24 21 27 26 31
4 3 3 6 18 15 18 22 28 26 26 25 26 29 26 18 21 24 21 20 21 21 22 16 21 23 23 22 20 17 16 17 19 11 7 15 16 21 23 25 27 28 29 28

GFSCGP_925_spd_084.txt.gz
Wind_Speed
14 11 12 16 17 18 16 17 17 21 22 17 16 17 14 14 18 20 15 17 17 16 14 18 9 11 9 7 6 8 11 21 27 25 14 9 8 11 18 20 17 21 21 23
14 14 15 16 16 18 14 17 19 20 20 18 20 22 18 19 20 20 20 18 14 14 15 14 21 19 13 9 8 7 7 6 15 23 21 16 15 22 15 5 8 19 21 21
15 16 17 9 15 16 15 17 19 20 20 21 21 20 19 25 26 26 23 20 17 15 15 15 19 23 17 12 7 5 5 3 2 6 15 15 17 19 21 23 25 20 14 19
15 16 16 16 12 14 17 16 17 17 17 15 16 17 20 21 21 18 12 13 15 12 9 7 14 19 17 8 8 5 5 4 3 2 7 11 18 13 18 18 15 21 25 26
18 16 17 17 15 16 19 16 16 20 19 21 21 14 19 20 22 21 18 18 9 7 7 9 6 5 10 7 6 9 7 8 6 8 6 7 7 12 14 16 16 23 24 27
22 21 23 22 20 16 18 16 18 18 17 16 24 21 21 18 20 17 14 14 12 7 10 11 14 14 7 12 16 14 6 8 9 8 8 12 12 13 13 13 15 13 17 30
22 23 25 23 24 22 21 17 13 16 13 15 22 14 10 16 3 12 14 11 11 9 9 8 9 13 17 20 14 10 12 14 12 10 11 12 14 15 19 16 18 23 16 23
19 21 20 18 17 19 21 18 11 15 15 17 22 6 11 12 16 10 5 14 6 5 8 10 11 11 14 11 16 15 10 12 13 13 13 12 14 17 17 20 21 22 23 28
18 26 22 19 17 14 18 18 19 18 13 11 17 26 23 19 22 11 8 7 8 6 7 7 5 1 8 13 14 14 13 14 11 16 20 18 18 17 18 20 23 21 22 24
17 21 20 21 21 17 16 17 15 10 7 18 17 19 12 18 10 11 8 9 8 7 10 8 8 12 11 13 17 17 17 19 18 21 16 17 20 20 20 22 26 26 28 27
16 16 19 21 19 21 13 17 18 16 13 15 16 15 4 3 2 12 11 10 10 9 11 9 10 13 17 12 19 19 23 23 23 17 16 16 19 23 24 24 24 26 26 28
18 13 16 18 23 22 19 18 16 15 12 12 11 17 10 7 5 12 16 8 11 11 13 13 11 10 12 14 20 16 14 15 15 12 15 18 13 16 23 25 26 26 27 27
8 7 11 13 18 16 6 17 20 15 12 19 14 17 12 10 3 10 20 22 19 11 10 10 10 10 11 16 16 16 16 18 19 19 19 16 14 16 25 25 27 28 28 28
4 13 17 16 22 21 12 19 12 11 8 14 16 23 17 13 16 15 20 14 21 17 12 13 10 11 10 15 16 17 17 16 12 21 22 14 12 15 22 23 21 25 30 31
2 14 19 19 22 24 24 25 21 18 18 18 25 24 23 18 19 15 19 20 28 18 15 12 9 8 7 12 17 20 20 19 20 16 11 20 15 15 21 27 26 25 29 31
10 4 16 20 19 25 28 26 27 27 23 27 24 25 21 22 21 21 20 20 14 13 13 15 12 12 11 15 20 16 15 15 16 21 20 18 19 16 20 21 24 28 32 33
16 14 15 19 19 20 14 18 27 20 20 22 15 19 21 21 20 18 17 16 16 12 14 14 14 14 12 16 18 18 21 22 24 25 25 24 25 22 20 22 27 30 33 34
13 14 11 13 15 18 19 6 8 11 11 16 16 14 8 13 14 15 14 14 16 15 13 14 14 13 17 22 21 24 26 27 27 26 25 26 25 22 25 26 29 31 33 33
9 11 5 5 10 18 21 8 8 7 13 13 8 12 15 19 19 17 16 11 18 19 18 17 21 23 27 27 30 29 29 32 33 30 32 34 34 28 25 27 32 33 32 36
5 5 4 8 4 7 7 4 10 10 11 16 18 15 17 19 14 14 21 23 22 21 18 17 27 30 32 31 25 27 30 34 31 32 36 36 36 34 34 34 36 34 37 40
3 2 5 9 7 9 13 16 17 10 9 22 21 21 18 15 12 19 22 20 19 20 23 31 33 28 30 30 30 29 30 27 35 25 23 21 24 32 33 37 41 37 36 39
2 3 2 3 4 6 8 6 7 11 18 21 19 19 21 23 25 24 22 22 22 22 24 30 26 28 31 33 32 29 26 36 32 32 35 40 43 44 44 46 41 40 39 38
4 1 3 4 6 15 16 16 14 18 19 19 23 24 23 25 25 25 25 22 19 21 21 35 27 27 30 31 32 29 36 37 35 41 50 54 58 58 51 44 40 38 38 35
9 9 6 8 7 19 21 18 21 22 24 26 25 25 24 24 23 23 24 24 23 21 20 27 26 22 21 28 29 32 31 36 38 45 55 57 44 49 52 42 35 30 29 31
5 10 11 15 12 24 10 18 22 25 25 25 16 23 25 24 25 24 21 22 20 18 20 24 16 17 23 32 34 32 33 35 38 39 39 8 16 31 36 35 33 32 38 35
6 5 2 4 16 12 18 22 27 24 23 20 24 25 23 23 22 22 19 17 17 18 22 20 26 25 28 30 32 32 36 27 30 26 9 7 14 20 23 21 13 17 27 38